Regional Weather Roundup
Issued by NWS

Home | Current Version | Previous Version | Graphics & Text | Print | Product List | Glossary On
Versions: 1 2 3 4 5 6 7 8 9 10 11 12 13 14 15 16 17 18 19 20 21 22 23 24 25 26 27 28 29 30 31 32 33 34 35 36 37 38 39 40 41 42 43 44 45 46 47 48 49 50
000
ASUS43 KBIS 281202
RWRND

NORTH DAKOTA REGIONAL WEATHER ROUNDUP
NATIONAL WEATHER SERVICE BISMARCK ND
700 AM CDT FRI AUG 28 2015

NOTE: "FAIR" INDICATES FEW OR NO CLOUDS BELOW 12,000 FEET WITH NO
SIGNIFICANT WEATHER AND/OR OBSTRUCTIONS TO VISIBILITY.


NDZ001>003-009>011-017-281300-
NORTHWEST NORTH DAKOTA

CITY           SKY/WX    TMP DP  RH WIND       PRES   REMARKS
WILLISTON      PTCLDY    62  60  93 S3        29.88R
6HR MIN TEMP:  60; 6HR MAX TEMP:  67;

MINOT          PTCLDY    67  58  72 SW13      29.82S
MINOT AFB      MOCLDY    65  64  94 W9        29.81S
$$

NDZ018>021-031>035-040>046-281300-
SOUTHWEST NORTH DAKOTA

CITY           SKY/WX    TMP DP  RH WIND       PRES   REMARKS
BISMARCK       CLEAR     59  58  96 SE6       29.91S
6HR MIN TEMP:  59; 6HR MAX TEMP:  68;

DICKINSON      CLEAR     58  54  86 SW3       29.91R
GARRISON         N/A     62  58  86 NW3       29.88R
6HR MIN TEMP:  60; 6HR MAX TEMP:  66;

HETTINGER ARPT PTCLDY    56  53  90 CALM      29.96S
$$

NDZ004>008-012>016-024-026-027-054-281300-
NORTHEAST NORTH DAKOTA

CITY           SKY/WX    TMP DP  RH WIND       PRES   REMARKS
GRAND FORKS    MOCLDY    63  61  93 S8        29.85F
GRND FRKS AFB  MOCLDY    62  61  96 SW5       29.86F
DEVILS LAKE    CLOUDY    64  55  72 S9        29.85F
$$

NDZ022-023-025-028>030-036>039-047>053-281300-
SOUTHEAST NORTH DAKOTA

CITY           SKY/WX    TMP DP  RH WIND       PRES   REMARKS
FARGO          CLOUDY    65  63  93 S9        29.90F FOG
6HR MIN TEMP:  65; 6HR MAX TEMP:  69;

JAMESTOWN      PTCLDY    59  57  93 CALM      29.90R
$$



USA.gov is the U.S. government's official web portal to all federal, state and local government web resources and services.